Regional Weather Roundup
Issued by NWS Goodland, KS

Home | Current Version | Previous Version | Graphics & Text | Print | Product List | Glossary On
Versions: 1 2 3 4 5 6 7 8 9 10 11 12 13 14 15 16 17 18 19 20 21 22 23 24 25 26 27 28 29 30 31 32 33 34 35 36 37 38 39 40 41 42 43 44 45 46 47 48 49 50
000
ASUS43 KGLD 231308
RWRGLD

GOODLAND FORECAST AREA HOURLY WEATHER ROUNDUP
NATIONAL WEATHER SERVICE GOODLAND KS
700 AM MDT WED APR 23 2014

...OFFICIAL OBSERVATIONS...

CITY           SKY/WX    TMP DP  RH WIND       PRES   REMARKS
GOODLAND KS    CLOUDY    63  42  46 S23G33    29.61S
HILL CITY KS   PTSUNNY   56  43  61 S16G24    29.67F
IMPERIAL NEB   CLOUDY    58  43  57 S9        29.53F
MCCOOK NEB     CLOUDY    56  46  69 SE10      29.60F
AKRON CO       CLOUDY    59  35  40 SW21      29.56S
BURLINGTON CO  CLOUDY    61  41  47 S23G30    29.64S
LIMON CO       CLOUDY    50  37  61 S13       29.67R
$$

...UNOFFICIAL OBSERVATIONS...

CITY           SKY/WX    TMP DP  RH WIND       PRES   REMARKS
COLBY KS       SUNNY     63  45  51 S25       29.63S
LENORA KS        N/A     56  32  40 SE22        N/A
LEOTI KS         N/A     60  32  34 S13         N/A
NORTON KS      SUNNY     54  39  58 SE14G22   29.65S
OBERLIN KS     FAIR      59  46  63 S12G18    29.61S
SHARON SPRINGS   N/A     59  42  52 S18G26      N/A
ST FRANCIS KS  CLOUDY    64  39  39 SW26G36   29.54F
WAKEENEY KS      N/A     58  45  61 MISG        N/A
KIT CARSON CO    N/A     58  42  56 MISG        N/A
WRAY CO        FAIR      63  41  45 SW22G28   29.53F
$$



USA.gov is the U.S. government's official web portal to all federal, state and local government web resources and services.